UAL178G KSFO-KLAX

Flight info

Callsign UAL178G
Flight time 1h 0m
Altitude 33000
Route WESLA5 SUSEY EBAYE BURGL IRNMN2
Aircraft A320/M-SDE3FGHIRWY/LB1

Departure

Time 2026-05-07 22:53
Airport San Francisco International Airport (KSFO)

Arrival

Time 2026-05-07 23:54
Airport Los Angeles International Airport (KLAX)
Time Latitude Longitude Altitude Speed Heading
2026-05-07 21:54 37.62054 -122.38651 17 ft 0 kts 296°
2026-05-07 22:37 37.62045 -122.38627 16 ft 4 kts 296°
2026-05-07 22:38 37.62032 -122.38599 17 ft 4 kts 325°
2026-05-07 22:38 37.62020 -122.38594 17 ft 0 kts 28°
2026-05-07 22:42 37.62023 -122.38592 17 ft 2 kts 28°
2026-05-07 22:42 37.62052 -122.38572 17 ft 7 kts 28°
2026-05-07 22:43 37.62089 -122.38537 20 ft 7 kts 59°
2026-05-07 22:43 37.62075 -122.38463 21 ft 10 kts 117°
2026-05-07 22:43 37.62041 -122.38380 23 ft 11 kts 117°
2026-05-07 22:43 37.62006 -122.38296 25 ft 12 kts 118°
2026-05-07 22:44 37.61962 -122.38193 22 ft 15 kts 118°
2026-05-07 22:44 37.61909 -122.38068 24 ft 16 kts 117°
2026-05-07 22:44 37.61853 -122.37932 21 ft 19 kts 117°
2026-05-07 22:44 37.61801 -122.37773 18 ft 20 kts 111°
2026-05-07 22:45 37.61749 -122.37610 20 ft 20 kts 111°
2026-05-07 22:45 37.61703 -122.37472 20 ft 18 kts 116°
2026-05-07 22:45 37.61644 -122.37333 24 ft 18 kts 118°
2026-05-07 22:45 37.61580 -122.37181 23 ft 21 kts 117°
2026-05-07 22:46 37.61522 -122.37040 23 ft 16 kts 118°
2026-05-07 22:46 37.61455 -122.36913 21 ft 19 kts 130°
2026-05-07 22:46 37.61369 -122.36782 19 ft 21 kts 123°
2026-05-07 22:46 37.61302 -122.36628 18 ft 20 kts 118°
2026-05-07 22:47 37.61243 -122.36487 15 ft 18 kts 118°
2026-05-07 22:47 37.61195 -122.36374 18 ft 14 kts 118°
2026-05-07 22:47 37.61153 -122.36274 19 ft 13 kts 118°
2026-05-07 22:47 37.61115 -122.36183 17 ft 9 kts 118°
2026-05-07 22:48 37.61089 -122.36122 19 ft 8 kts 117°
2026-05-07 22:48 37.61072 -122.36081 20 ft 1 kts 118°
2026-05-07 22:48 37.61064 -122.36062 20 ft 5 kts 117°
2026-05-07 22:48 37.61050 -122.36001 20 ft 8 kts 96°
2026-05-07 22:49 37.61054 -122.35971 19 ft 2 kts 74°
2026-05-07 22:49 37.61080 -122.35919 18 ft 6 kts 43°
2026-05-07 22:49 37.61097 -122.35905 19 ft 0 kts 29°
2026-05-07 22:51 37.61098 -122.35905 19 ft 1 kts 29°
2026-05-07 22:51 37.61116 -122.35892 19 ft 4 kts 29°
2026-05-07 22:51 37.61156 -122.35866 21 ft 8 kts 24°
2026-05-07 22:52 37.61190 -122.35888 19 ft 7 kts 296°
2026-05-07 22:52 37.61222 -122.35963 17 ft 13 kts 298°
2026-05-07 22:52 37.61234 -122.35991 16 ft 5 kts 298°
2026-05-07 22:52 37.61258 -122.36050 16 ft 12 kts 298°
2026-05-07 22:53 37.61372 -122.36323 13 ft 68 kts 298°
2026-05-07 22:53 37.61691 -122.37077 21 ft 124 kts 298°
2026-05-07 22:53 37.62163 -122.38197 177 ft 155 kts 298°
2026-05-07 22:53 37.62669 -122.39442 777 ft 162 kts 297°
2026-05-07 22:54 37.63210 -122.40708 1450 ft 166 kts 299°
2026-05-07 22:54 37.63784 -122.42012 1994 ft 178 kts 299°
2026-05-07 22:54 37.64421 -122.43455 2285 ft 203 kts 299°
2026-05-07 22:54 37.65149 -122.45103 2707 ft 226 kts 298°
2026-05-07 22:55 37.65926 -122.46863 3481 ft 234 kts 298°
2026-05-07 22:55 37.66695 -122.48696 4305 ft 240 kts 290°
2026-05-07 22:55 37.66842 -122.50843 4860 ft 257 kts 253°
2026-05-07 22:55 37.65885 -122.52744 5656 ft 265 kts 220°
2026-05-07 22:56 37.64179 -122.53627 6534 ft 273 kts 186°
2026-05-07 22:56 37.62290 -122.53226 7403 ft 281 kts 162°
2026-05-07 22:56 37.60478 -122.52250 8279 ft 285 kts 159°
2026-05-07 22:56 37.58682 -122.51250 9133 ft 288 kts 159°
2026-05-07 22:57 37.56842 -122.50225 9984 ft 291 kts 159°
2026-05-07 22:57 37.54942 -122.49176 10443 ft 308 kts 160°
2026-05-07 22:57 37.52840 -122.48290 10685 ft 329 kts 166°
2026-05-07 22:57 37.50600 -122.47511 11225 ft 339 kts 163°
2026-05-07 22:58 37.48444 -122.46248 11883 ft 346 kts 149°
2026-05-07 22:58 37.46592 -122.44282 12556 ft 353 kts 135°
2026-05-07 22:58 37.44900 -122.42017 13253 ft 357 kts 134°
2026-05-07 22:58 37.43212 -122.39703 13938 ft 361 kts 134°
2026-05-07 22:59 37.41537 -122.37387 14519 ft 364 kts 133°
2026-05-07 22:59 37.39824 -122.35023 15145 ft 367 kts 134°
2026-05-07 22:59 37.38086 -122.32637 15732 ft 372 kts 134°
2026-05-07 22:59 37.36326 -122.30235 16350 ft 375 kts 133°
2026-05-07 23:00 37.34547 -122.27819 16976 ft 378 kts 133°
2026-05-07 23:00 37.32751 -122.25389 17602 ft 381 kts 133°
2026-05-07 23:00 37.30938 -122.22941 18238 ft 385 kts 133°
2026-05-07 23:00 37.29106 -122.20471 18792 ft 389 kts 133°
2026-05-07 23:01 37.27286 -122.18012 19359 ft 391 kts 133°
2026-05-07 23:01 37.25427 -122.15494 19942 ft 395 kts 133°
2026-05-07 23:01 37.23552 -122.12955 20524 ft 398 kts 133°
2026-05-07 23:01 37.21664 -122.10402 21109 ft 401 kts 133°
2026-05-07 23:02 37.19758 -122.07833 21667 ft 404 kts 133°
2026-05-07 23:02 37.17839 -122.05251 22259 ft 406 kts 133°
2026-05-07 23:02 37.15906 -122.02654 22791 ft 409 kts 133°
2026-05-07 23:02 37.13959 -122.00039 23323 ft 412 kts 133°
2026-05-07 23:03 37.12020 -121.97434 23797 ft 416 kts 133°
2026-05-07 23:03 37.10041 -121.94776 24220 ft 418 kts 133°
2026-05-07 23:03 37.08050 -121.92098 24636 ft 421 kts 133°
2026-05-07 23:03 37.06047 -121.89407 25060 ft 424 kts 133°
2026-05-07 23:04 37.04026 -121.86699 25459 ft 427 kts 133°
2026-05-07 23:04 37.01990 -121.83976 25856 ft 430 kts 133°
2026-05-07 23:04 36.99939 -121.81234 26223 ft 434 kts 133°
2026-05-07 23:04 36.97871 -121.78474 26628 ft 435 kts 133°
2026-05-07 23:05 36.95800 -121.75706 27056 ft 437 kts 133°
2026-05-07 23:05 36.93749 -121.72969 27464 ft 438 kts 133°
2026-05-07 23:05 36.91656 -121.70180 27833 ft 441 kts 133°
2026-05-07 23:05 36.89549 -121.67376 28211 ft 444 kts 133°
2026-05-07 23:06 36.87430 -121.64560 28576 ft 447 kts 133°
2026-05-07 23:06 36.85297 -121.61727 28958 ft 449 kts 133°
2026-05-07 23:06 36.83153 -121.58880 29276 ft 452 kts 133°
2026-05-07 23:06 36.80997 -121.56016 29651 ft 454 kts 133°
2026-05-07 23:07 36.78824 -121.53132 30008 ft 457 kts 133°
2026-05-07 23:07 36.76668 -121.50277 30356 ft 459 kts 133°
2026-05-07 23:07 36.74478 -121.47386 30689 ft 460 kts 133°
2026-05-07 23:07 36.72275 -121.44483 30993 ft 462 kts 133°
2026-05-07 23:08 36.70069 -121.41568 31299 ft 463 kts 133°
2026-05-07 23:08 36.67862 -121.38649 31670 ft 463 kts 133°
2026-05-07 23:08 36.65657 -121.35730 32044 ft 463 kts 133°
2026-05-07 23:08 36.63444 -121.32807 32385 ft 464 kts 133°
2026-05-07 23:09 36.61230 -121.29893 32802 ft 463 kts 133°
2026-05-07 23:09 36.59044 -121.27024 33046 ft 463 kts 133°
2026-05-07 23:09 36.56840 -121.24138 33108 ft 456 kts 133°
2026-05-07 23:10 36.52541 -121.18502 33076 ft 443 kts 133°
2026-05-07 23:10 36.50448 -121.15762 33078 ft 432 kts 133°
2026-05-07 23:10 36.48391 -121.13072 33078 ft 428 kts 133°
2026-05-07 23:11 36.44305 -121.07728 33078 ft 426 kts 133°
2026-05-07 23:11 36.40303 -121.02303 33070 ft 426 kts 130°
2026-05-07 23:12 36.36491 -120.96737 33071 ft 426 kts 129°
2026-05-07 23:12 36.32675 -120.91128 33078 ft 424 kts 130°
2026-05-07 23:13 36.28827 -120.85590 33080 ft 424 kts 131°
2026-05-07 23:13 36.24961 -120.80084 33080 ft 423 kts 131°
2026-05-07 23:14 36.21132 -120.74614 33073 ft 423 kts 130°
2026-05-07 23:14 36.17280 -120.69114 33072 ft 423 kts 130°
2026-05-07 23:15 36.13424 -120.63623 33070 ft 423 kts 131°
2026-05-07 23:15 36.09562 -120.58139 33071 ft 423 kts 130°
2026-05-07 23:16 36.05725 -120.52689 33061 ft 423 kts 130°
2026-05-07 23:16 36.01861 -120.47201 33063 ft 423 kts 130°
2026-05-07 23:17 35.97985 -120.41716 33057 ft 424 kts 131°
2026-05-07 23:17 35.94099 -120.36249 33066 ft 423 kts 130°
2026-05-07 23:18 35.90250 -120.30825 33071 ft 423 kts 130°
2026-05-07 23:18 35.86140 -120.25667 33069 ft 423 kts 141°
2026-05-07 23:19 35.81188 -120.21766 33063 ft 423 kts 148°
2026-05-07 23:19 35.76166 -120.17996 33059 ft 423 kts 148°
2026-05-07 23:20 35.71143 -120.14204 33049 ft 424 kts 148°
2026-05-07 23:20 35.66114 -120.10419 33050 ft 424 kts 148°
2026-05-07 23:21 35.61120 -120.06657 33059 ft 423 kts 147°
2026-05-07 23:21 35.56103 -120.02871 33061 ft 423 kts 147°
2026-05-07 23:22 35.51094 -119.99083 33060 ft 423 kts 147°
2026-05-07 23:22 35.46078 -119.95314 33059 ft 423 kts 147°
2026-05-07 23:23 35.41058 -119.91550 33055 ft 423 kts 148°
2026-05-07 23:23 35.36036 -119.87795 33047 ft 423 kts 148°
2026-05-07 23:24 35.31037 -119.84049 33041 ft 412 kts 147°
2026-05-07 23:24 35.26456 -119.80159 33042 ft 400 kts 141°
2026-05-07 23:25 35.22050 -119.76021 33044 ft 399 kts 141°
2026-05-07 23:25 35.19837 -119.73957 32724 ft 399 kts 141°
2026-05-07 23:25 35.17629 -119.71901 32469 ft 400 kts 141°
2026-05-07 23:25 35.15415 -119.69841 32213 ft 400 kts 141°
2026-05-07 23:26 35.13198 -119.67778 31966 ft 401 kts 141°
2026-05-07 23:26 35.10976 -119.65713 31714 ft 402 kts 141°
2026-05-07 23:26 35.08750 -119.63642 31469 ft 403 kts 141°
2026-05-07 23:26 35.06520 -119.61566 31230 ft 403 kts 141°
2026-05-07 23:27 35.02080 -119.57428 30750 ft 405 kts 140°
2026-05-07 23:27 34.99836 -119.55340 30529 ft 406 kts 141°
2026-05-07 23:27 34.97587 -119.53253 30279 ft 407 kts 141°
2026-05-07 23:28 34.95327 -119.51158 29880 ft 408 kts 140°
2026-05-07 23:28 34.93064 -119.49064 29364 ft 409 kts 141°
2026-05-07 23:28 34.90793 -119.46965 28871 ft 410 kts 141°
2026-05-07 23:28 34.88507 -119.44881 28458 ft 411 kts 142°
2026-05-07 23:29 34.86203 -119.42818 28038 ft 412 kts 142°
2026-05-07 23:29 34.83880 -119.40755 27581 ft 414 kts 141°
2026-05-07 23:29 34.81547 -119.38690 27145 ft 415 kts 141°
2026-05-07 23:29 34.79218 -119.36622 26707 ft 415 kts 142°
2026-05-07 23:30 34.76918 -119.34577 26272 ft 413 kts 142°
2026-05-07 23:30 34.74636 -119.32545 25734 ft 402 kts 141°
2026-05-07 23:30 34.72388 -119.30552 25419 ft 401 kts 141°
2026-05-07 23:30 34.70128 -119.28568 25001 ft 401 kts 143°
2026-05-07 23:31 34.67859 -119.26598 24579 ft 402 kts 142°
2026-05-07 23:31 34.65584 -119.24627 24159 ft 403 kts 142°
2026-05-07 23:31 34.63296 -119.22642 23671 ft 405 kts 142°
2026-05-07 23:31 34.60998 -119.20654 23082 ft 406 kts 143°
2026-05-07 23:32 34.58696 -119.18672 22580 ft 406 kts 143°
2026-05-07 23:32 34.56387 -119.16691 22059 ft 407 kts 143°
2026-05-07 23:32 34.54088 -119.14698 21542 ft 407 kts 142°
2026-05-07 23:32 34.51797 -119.12680 21030 ft 407 kts 143°
2026-05-07 23:33 34.49539 -119.10674 20502 ft 408 kts 141°
2026-05-07 23:33 34.47297 -119.08676 20249 ft 387 kts 142°
2026-05-07 23:33 34.45202 -119.06815 20084 ft 361 kts 142°
2026-05-07 23:33 34.43220 -119.05056 19596 ft 349 kts 142°
2026-05-07 23:34 34.41266 -119.03340 18888 ft 346 kts 142°
2026-05-07 23:34 34.39329 -119.01656 18250 ft 341 kts 143°
2026-05-07 23:34 34.37401 -118.99996 17693 ft 340 kts 142°
2026-05-07 23:34 34.35448 -118.98319 17268 ft 351 kts 143°
2026-05-07 23:35 34.33452 -118.96599 16785 ft 352 kts 143°
2026-05-07 23:35 34.31473 -118.94842 16245 ft 352 kts 141°
2026-05-07 23:35 34.29541 -118.93083 15721 ft 353 kts 140°
2026-05-07 23:35 34.27595 -118.91296 15284 ft 349 kts 140°
2026-05-07 23:36 34.25656 -118.89517 14798 ft 348 kts 140°
2026-05-07 23:36 34.23745 -118.87765 14237 ft 342 kts 141°
2026-05-07 23:36 34.21869 -118.86034 13595 ft 337 kts 140°
2026-05-07 23:36 34.19995 -118.84304 13144 ft 337 kts 141°
2026-05-07 23:37 34.18163 -118.82620 13013 ft 326 kts 140°
2026-05-07 23:37 34.16389 -118.80984 12805 ft 317 kts 140°
2026-05-07 23:37 34.14709 -118.79294 12607 ft 312 kts 137°
2026-05-07 23:37 34.13097 -118.77548 12307 ft 309 kts 136°
2026-05-07 23:38 34.11523 -118.75793 11998 ft 307 kts 135°
2026-05-07 23:38 34.09960 -118.74041 11686 ft 306 kts 135°
2026-05-07 23:38 34.08419 -118.72327 11378 ft 305 kts 135°
2026-05-07 23:38 34.06832 -118.70581 11088 ft 304 kts 136°
2026-05-07 23:39 34.05279 -118.68886 10916 ft 298 kts 136°
2026-05-07 23:39 34.03915 -118.67084 10515 ft 291 kts 122°
2026-05-07 23:39 34.03008 -118.64933 10201 ft 289 kts 106°
2026-05-07 23:39 34.02602 -118.62576 9901 ft 287 kts 94°
2026-05-07 23:40 34.02383 -118.60179 9597 ft 289 kts 94°
2026-05-07 23:40 34.02156 -118.57779 9294 ft 287 kts 95°
2026-05-07 23:40 34.01928 -118.55392 8989 ft 286 kts 95°
2026-05-07 23:40 34.01698 -118.52982 8378 ft 297 kts 95°
2026-05-07 23:41 34.01463 -118.50487 7883 ft 302 kts 95°
2026-05-07 23:41 34.01227 -118.47988 7662 ft 297 kts 95°
2026-05-07 23:41 34.01003 -118.45541 7466 ft 290 kts 96°
2026-05-07 23:41 34.00939 -118.43149 7178 ft 281 kts 81°
2026-05-07 23:42 34.01415 -118.40860 6506 ft 283 kts 71°
2026-05-07 23:42 34.01982 -118.38627 6199 ft 274 kts 71°
2026-05-07 23:42 34.02537 -118.36457 6077 ft 267 kts 72°
2026-05-07 23:42 34.02856 -118.34324 6003 ft 256 kts 82°
2026-05-07 23:43 34.03066 -118.32251 6003 ft 244 kts 82°
2026-05-07 23:43 34.03273 -118.30230 6007 ft 244 kts 82°
2026-05-07 23:43 34.03488 -118.28215 6007 ft 242 kts 81°
2026-05-07 23:43 34.03717 -118.26212 6003 ft 241 kts 81°
2026-05-07 23:44 34.03948 -118.24210 6005 ft 242 kts 81°
2026-05-07 23:44 34.04179 -118.22199 6002 ft 242 kts 81°
2026-05-07 23:44 34.04407 -118.20196 5998 ft 240 kts 81°
2026-05-07 23:44 34.04633 -118.18190 5744 ft 241 kts 81°
2026-05-07 23:45 34.04852 -118.16225 5383 ft 239 kts 81°
2026-05-07 23:45 34.05071 -118.14245 5024 ft 237 kts 81°
2026-05-07 23:45 34.05288 -118.12281 4650 ft 236 kts 82°
2026-05-07 23:45 34.05499 -118.10319 4271 ft 235 kts 84°
2026-05-07 23:46 34.05243 -118.08421 4019 ft 226 kts 121°
2026-05-07 23:46 34.04177 -118.07047 4142 ft 233 kts 149°
2026-05-07 23:46 34.02707 -118.06326 3986 ft 222 kts 168°
2026-05-07 23:46 34.01254 -118.05890 3981 ft 211 kts 176°
2026-05-07 23:47 33.99861 -118.06043 3986 ft 197 kts 213°
2026-05-07 23:47 33.98788 -118.07015 3960 ft 195 kts 227°
2026-05-07 23:47 33.97847 -118.08203 3679 ft 196 kts 234°
2026-05-07 23:47 33.97275 -118.09608 3539 ft 186 kts 259°
2026-05-07 23:48 33.96983 -118.11121 3592 ft 187 kts 258°
2026-05-07 23:48 33.96682 -118.12642 3588 ft 186 kts 258°
2026-05-07 23:48 33.96343 -118.14156 3596 ft 188 kts 257°
2026-05-07 23:48 33.96068 -118.15681 3587 ft 186 kts 262°
2026-05-07 23:49 33.95875 -118.17229 3529 ft 189 kts 263°
2026-05-07 23:49 33.95707 -118.18799 3293 ft 189 kts 264°
2026-05-07 23:49 33.95547 -118.20363 3049 ft 188 kts 265°
2026-05-07 23:49 33.95389 -118.21927 2796 ft 188 kts 264°
2026-05-07 23:50 33.95235 -118.23457 2565 ft 179 kts 264°
2026-05-07 23:50 33.95089 -118.24904 2306 ft 169 kts 263°
2026-05-07 23:50 33.94955 -118.26240 2069 ft 158 kts 262°
2026-05-07 23:50 33.94831 -118.27468 1880 ft 138 kts 260°
2026-05-07 23:51 33.94718 -118.28592 1708 ft 133 kts 261°
2026-05-07 23:51 33.94608 -118.29676 1531 ft 129 kts 261°
2026-05-07 23:51 33.94498 -118.30761 1353 ft 132 kts 262°
2026-05-07 23:51 33.94388 -118.31848 1190 ft 130 kts 263°
2026-05-07 23:52 33.94278 -118.32930 1010 ft 129 kts 259°
2026-05-07 23:52 33.94170 -118.33995 839 ft 127 kts 263°
2026-05-07 23:52 33.94060 -118.35074 674 ft 131 kts 263°
2026-05-07 23:52 33.93949 -118.36161 508 ft 129 kts 262°
2026-05-07 23:53 33.93834 -118.37235 353 ft 127 kts 266°
2026-05-07 23:53 33.93729 -118.38287 203 ft 126 kts 264°
2026-05-07 23:53 33.93635 -118.39280 126 ft 107 kts 264°
2026-05-07 23:53 33.93564 -118.40017 124 ft 70 kts 262°
2026-05-07 23:54 33.93533 -118.40362 126 ft 33 kts 272°
2026-05-07 23:54 33.93569 -118.40563 124 ft 15 kts 291°
2026-05-07 23:54 33.93592 -118.40643 125 ft 10 kts 276°
2026-05-07 23:54 33.93593 -118.40669 126 ft 2 kts 273°
2026-05-07 23:55 33.93594 -118.40715 126 ft 7 kts 270°
2026-05-07 23:55 33.93595 -118.40788 121 ft 10 kts 276°
2026-05-07 23:55 33.93605 -118.40835 125 ft 0 kts 289°
2026-05-07 23:56 33.93606 -118.40838 125 ft 2 kts 289°
2026-05-07 23:56 33.93626 -118.40876 124 ft 8 kts 314°
2026-05-07 23:57 33.93691 -118.40899 125 ft 12 kts 352°
2026-05-07 23:57 33.93731 -118.40905 125 ft 0 kts 352°
2026-05-07 23:57 33.93732 -118.40906 125 ft 0 kts 352°
2026-05-07 23:57 33.93733 -118.40906 125 ft 0 kts 352°
2026-05-07 23:58 33.93747 -118.40908 123 ft 8 kts 352°
2026-05-07 23:58 33.93811 -118.40917 123 ft 8 kts 353°
2026-05-07 23:58 33.93866 -118.40896 125 ft 11 kts 62°
2026-05-07 23:58 33.93882 -118.40823 126 ft 7 kts 65°
2026-05-07 23:59 33.93932 -118.40810 124 ft 9 kts 352°
2026-05-07 23:59 33.93974 -118.40775 124 ft 7 kts 76°
2026-05-07 23:59 33.93977 -118.40751 126 ft 1 kts 82°
2026-05-07 23:59 33.93978 -118.40742 126 ft 0 kts 79°